San Juan, PR

8:36 PM AST on March 29, 2017 (GMT -0400)
Luis Munoz Marin International

Weather History for TJSJ - June, 2014

Change the Weather History Date:

Wednesday, June 4, 2014

  Actual Average Record
Temperature  
Mean Temperature 84 °F 83 °F  
Max Temperature 91 °F 89 °F 93 °F (1993)
Min Temperature 77 °F 77 °F 70 °F (2011)
Degree Days  
Heating Degree Days 0 0  
Month to date heating degree days 0 0  
Since 1 June heating degree days 0 0  
Since 1 July heating degree days 0 0  
Cooling Degree Days 19 18  
Month to date cooling degree days 79 72  
Year to date cooling degree days 2485 2237  
Since 1 June cooling degree days 79 72  
Growing Degree Days 34 (Base 50)    
Moisture  
Dew Point 72 °F    
Average Humidity 66    
Maximum Humidity 82    
Minimum Humidity 49    
Precipitation  
Precipitation 0.00 in 0.16 in 1.80 in (1957)
Month to date precipitation 0.00 0.67  
Year to date precipitation 18.41 19.35  
Sea Level Pressure  
Sea Level Pressure 29.95 in    
Wind  
Wind Speed 6 mph (East)    
Max Wind Speed 18 mph    
Max Gust Speed 22 mph    
Visibility 9 miles    
Events      
T = Trace of Precipitation, MM = Missing Value Source: NWS Daily Summary

Daily Weather History Graph

Daily Weather History Graph

Search for Another Location

Airport or City:

Trip Planner

Search our weather history database for the weather conditions in past years. The results will help you decide how hot, cold, wet, or windy it might be!

Date:

Astronomy

Jun. 04, 2014 Rise Set
Actual Time 5:46 AM AST 6:58 PM AST
Civil Twilight 5:22 AM AST 7:22 PM AST
Nautical Twilight 4:54 AM AST 7:50 PM AST
Astronomical Twilight 4:24 AM AST 8:19 PM AST
Moon 11:26 AM AST (6/4) No Moon Set
Length of Visible Light 13h 59m
Length of Day
13h 11m
Waxing Crescent, 39% of the Moon is Illuminated
Jun 4
Waxing Crescent
Jun 5
First Quarter
Jun 13
Full
Jun 19
Last Quarter
Jun 27
New

Hourly Weather History & Observations

Time (AST) Temp. Heat Index Dew Point Humidity Pressure Visibility Wind Dir Wind Speed Gust Speed Precip Events Conditions
12:56 AM 81.0 °F 85.2 °F 72.0 °F 74% 29.94 in 10.0 mi Calm Calm - N/A   Clear
1:56 AM 80.1 °F 83.8 °F 72.0 °F 76% 29.92 in 10.0 mi Calm Calm - N/A   Clear
2:56 AM 77.0 °F - 71.1 °F 82% 29.93 in 10.0 mi ENE 3.5 mph - N/A   Clear
3:56 AM 79.0 °F - 71.1 °F 77% 29.93 in 10.0 mi South 3.5 mph - N/A   Clear
4:56 AM 79.0 °F - 72.0 °F 79% 29.94 in 10.0 mi Calm Calm - N/A   Clear
5:56 AM 77.0 °F - 71.1 °F 82% 29.96 in 9.0 mi Calm Calm - 0.02 in   Mostly Cloudy
6:56 AM 80.1 °F 83.8 °F 72.0 °F 76% 29.98 in 9.0 mi Calm Calm - N/A   Overcast
7:56 AM 81.0 °F 85.8 °F 73.0 °F 77% 29.99 in 8.0 mi Calm Calm - N/A   Overcast
8:56 AM 84.9 °F 90.7 °F 72.0 °F 65% 29.99 in 8.0 mi SE 3.5 mph - N/A   Mostly Cloudy
9:56 AM 87.1 °F 92.8 °F 71.1 °F 59% 29.99 in 8.0 mi Variable 5.8 mph - 0.01 in   Mostly Cloudy
10:56 AM 87.1 °F 92.8 °F 71.1 °F 59% 29.97 in 8.0 mi Variable 3.5 mph - N/A   Mostly Cloudy
11:56 AM 90.0 °F 94.5 °F 69.1 °F 50% 29.96 in 8.0 mi Variable 6.9 mph - N/A   Mostly Cloudy
12:56 PM 91.0 °F 95.6 °F 69.1 °F 48% 29.95 in 8.0 mi SSE 9.2 mph - 0.02 in   Mostly Cloudy
1:56 PM 91.0 °F 95.6 °F 69.1 °F 48% 29.94 in 8.0 mi SSE 6.9 mph 17.3 mph N/A   Mostly Cloudy
2:56 PM 88.0 °F 95.6 °F 73.0 °F 61% 29.92 in 8.0 mi NE 9.2 mph - N/A   Scattered Clouds
3:56 PM 88.0 °F 97.5 °F 75.0 °F 65% 29.91 in 6.0 mi ENE 16.1 mph - N/A   Haze
4:56 PM 86.0 °F 93.8 °F 73.9 °F 67% 29.91 in 6.0 mi East 9.2 mph - N/A   Haze
5:56 PM 84.9 °F 92.1 °F 73.9 °F 69% 29.92 in 7.0 mi ENE 12.7 mph - N/A   Mostly Cloudy
6:56 PM 82.9 °F 88.0 °F 72.0 °F 69% 29.94 in 7.0 mi ENE 12.7 mph - N/A   Mostly Cloudy
7:56 PM 82.0 °F 86.7 °F 72.0 °F 71% 29.95 in 9.0 mi East 10.4 mph - N/A   Scattered Clouds
8:56 PM 82.0 °F 87.4 °F 73.0 °F 74% 29.96 in 10.0 mi East 8.1 mph - N/A   Scattered Clouds
9:56 PM 82.0 °F 87.4 °F 73.0 °F 74% 29.97 in 10.0 mi East 10.4 mph - N/A   Partly Cloudy
10:56 PM 82.0 °F 86.7 °F 72.0 °F 71% 29.98 in 10.0 mi East 5.8 mph - N/A   Partly Cloudy
11:56 PM 81.0 °F 85.2 °F 72.0 °F 74% 29.97 in 10.0 mi East 5.8 mph - N/A   Scattered Clouds